This demonstration page uses our WeatherBlox Daily Observations layout. Learn more.

Left ArrowRight Arrow

Hourly Observations for August 8, 2020

Temp ( °F °C ) Dew Point ( °F °C ) Humidity (%) Winds ( mph kmh ) Pressure ( in mb ) Visibility ( mi km ) Precip ( " mm )
12:53 am 00:53 Clear 60 15.6 58 14.4 93 93 N N/A 30.17 1022 10 16.0934 N/A
1:53 am 01:53 Clear 59 15 58 14.4 96 96 N N/A 30.16 1021 10 16.0934 N/A
2:53 am 02:53 Clear with Mist and Fog 59 15 57 13.9 93 93 N N/A 30.16 1022 6 9.65604 N/A
3:53 am 03:53 Clear with Mist and Fog 58 14.4 57 13.9 97 97 N N/A 30.17 1022 6 9.65604 N/A
4:53 am 04:53 Clear 58 14.4 56 13.3 93 93 N N/A 30.17 1022 8 12.87472 N/A
5:53 am 05:53 Clear 58 14.4 56 13.3 93 93 N N/A 30.17 1022 8 12.87472 N/A
6:53 am 06:53 Partly Cloudy with Mist and Fog 58 14.4 56 13.3 93 93 N N/A 30.19 1022 4 6.43736 N/A
7:53 am 07:53 Sunny 61 16.1 60 15.6 97 97 N N/A 30.19 1022 8 12.87472 N/A
8:53 am 08:53 Sunny 68 20 62 16.7 81 81 N N/A 30.19 1022 10 16.0934 N/A
9:53 am 09:53 Sunny 72 22.2 63 17.2 73 73 N N/A 30.2 1023 10 16.0934 N/A
10:53 am 10:53 Sunny 76 24.4 64 17.8 67 67 N N/A 30.21 1023 10 16.0934 N/A
11:53 am 11:53 Sunny 80 26.7 61 16.1 52 52 VRB 5 7 30.21 1023 10 16.0934 N/A
12:53 pm 12:53 Mostly Sunny 81 27.2 60 15.6 49 49 N N/A 30.2 1023 10 16.0934 N/A
1:53 pm 13:53 Mostly Sunny 82 27.8 61 16.1 49 49 N N/A 30.18 1022 10 16.0934 N/A
2:53 pm 14:53 Mostly Sunny 83 28.3 62 16.7 49 49 WNW 6 9 30.16 1022 10 16.0934 N/A
3:53 pm 15:53 Sunny 83 28.3 61 16.1 48 48 SSE 5 7 30.14 1021 10 16.0934 N/A
4:53 pm 16:53 Sunny 83 28.3 60 15.6 46 46 W 6 9 30.14 1021 10 16.0934 N/A
5:53 pm 17:53 Sunny 84 28.9 61 16.1 46 46 VRB 3 6 30.14 1021 10 16.0934 N/A
6:53 pm 18:53 Sunny 80 26.7 69 20.6 69 69 N N/A 30.13 1020 10 16.0934 N/A
7:53 pm 19:53 Sunny 75 23.9 68 20 79 79 N N/A 30.14 1021 10 16.0934 N/A
8:53 pm 20:53 Clear 70 21.1 65 18.3 84 84 N N/A 30.14 1021 10 16.0934 N/A
9:53 pm 21:53 Clear 67 19.4 64 17.8 91 91 N N/A 30.15 1021 10 16.0934 N/A
10:53 pm 22:53 Clear 66 18.9 63 17.2 90 90 N N/A 30.16 1021 10 16.0934 N/A
11:53 pm 23:53 Clear 64 17.8 62 16.7 93 93 N N/A 30.15 1021 9 14.48406 N/A

Powered by AerisWeather